Time,TemperatureF,DewpointF,PressureIn,WindDirection,WindDirectionDegrees,WindSpeedMPH,WindSpeedGustMPH,Humidity,HourlyPrecipIn,Conditions,Clouds,dailyrainin,SoftwareType,DateUTC
2013-02-26 00:00:00,32.9,29.5,29.91,ENE,62,1.0,2.0,87,0.00,,,0.00,Wunderground v.1.15,2013-02-26 06:00:00,
2013-02-26 00:05:00,32.9,29.5,29.90,ENE,59,2.0,2.0,87,0.00,,,0.00,Wunderground v.1.15,2013-02-26 06:05:00,
2013-02-26 00:15:00,32.9,29.5,29.90,NE,56,1.0,2.0,87,0.00,,,0.00,Wunderground v.1.15,2013-02-26 06:15:00,
2013-02-26 00:20:00,32.9,29.5,29.90,NE,34,2.0,3.0,87,0.00,,,0.00,Wunderground v.1.15,2013-02-26 06:20:00,
2013-02-26 00:25:00,32.9,29.5,29.89,ENE,62,3.0,3.0,87,0.00,,,0.00,Wunderground v.1.15,2013-02-26 06:25:00,
2013-02-26 00:30:00,32.9,29.5,29.88,NNE,30,2.0,3.0,87,0.00,,,0.00,Wunderground v.1.15,2013-02-26 06:30:00,
2013-02-26 00:35:00,32.9,29.5,29.88,ENE,59,2.0,3.0,87,0.00,,,0.00,Wunderground v.1.15,2013-02-26 06:35:00,
2013-02-26 00:40:00,32.8,29.4,29.88,NE,56,2.0,3.0,87,0.00,,,0.00,Wunderground v.1.15,2013-02-26 06:40:00,
2013-02-26 00:45:00,32.8,29.4,29.88,NNE,27,1.0,3.0,87,0.00,,,0.00,Wunderground v.1.15,2013-02-26 06:45:00,
2013-02-26 00:50:00,32.8,29.4,29.89,NE,53,1.0,1.0,87,0.00,,,0.00,Wunderground v.1.15,2013-02-26 06:50:00,
2013-02-26 01:00:00,32.8,29.1,29.88,NE,51,1.0,1.0,86,0.00,,,0.00,Wunderground v.1.15,2013-02-26 07:00:00,
2013-02-26 01:05:00,32.8,29.1,29.87,ENE,59,2.0,3.0,86,0.00,,,0.00,Wunderground v.1.15,2013-02-26 07:05:00,
2013-02-26 01:15:00,32.9,29.2,29.86,NE,36,3.0,5.0,86,0.00,,,0.00,Wunderground v.1.15,2013-02-26 07:15:00,
2013-02-26 01:20:00,32.8,29.1,29.86,NE,38,2.0,2.0,86,0.00,,,0.00,Wunderground v.1.15,2013-02-26 07:20:00,
2013-02-26 01:25:00,32.7,29.0,29.86,North,355,2.0,2.0,86,0.00,,,0.00,Wunderground v.1.15,2013-02-26 07:25:00,
2013-02-26 01:30:00,32.6,28.9,29.86,NE,46,2.0,3.0,86,0.00,,,0.00,Wunderground v.1.15,2013-02-26 07:30:00,
2013-02-26 01:35:00,32.4,29.0,29.86,ENE,59,1.0,5.0,87,0.00,,,0.00,Wunderground v.1.15,2013-02-26 07:35:00,
2013-02-26 01:45:00,32.3,28.9,29.85,North,5,2.0,3.0,87,0.00,,,0.00,Wunderground v.1.15,2013-02-26 07:45:00,
2013-02-26 01:50:00,32.3,28.9,29.85,NE,48,2.0,5.0,87,0.00,,,0.00,Wunderground v.1.15,2013-02-26 07:50:00,
2013-02-26 01:55:00,32.2,28.8,29.86,ENE,70,2.0,5.0,87,0.00,,,0.00,Wunderground v.1.15,2013-02-26 07:55:00,
2013-02-26 02:00:00,32.3,28.9,29.85,NE,35,2.0,4.0,87,0.00,,,0.00,Wunderground v.1.15,2013-02-26 08:00:00,
2013-02-26 02:05:00,32.3,28.9,29.85,NNE,31,2.0,4.0,87,0.00,,,0.00,Wunderground v.1.15,2013-02-26 08:05:00,
2013-02-26 02:10:00,32.4,28.7,29.85,NE,42,2.0,2.0,86,0.00,,,0.00,Wunderground v.1.15,2013-02-26 08:10:00,
2013-02-26 02:15:00,32.4,28.7,29.84,ENE,72,2.0,2.0,86,0.00,,,0.00,Wunderground v.1.15,2013-02-26 08:15:00,
2013-02-26 02:20:00,32.3,28.6,29.84,ENE,63,1.0,2.0,86,0.00,,,0.00,Wunderground v.1.15,2013-02-26 08:20:00,
2013-02-26 02:30:00,32.1,28.7,29.84,NNE,32,1.0,1.0,87,0.00,,,0.00,Wunderground v.1.15,2013-02-26 08:30:00,
2013-02-26 02:35:00,32.1,28.7,29.83,ENE,76,2.0,4.0,87,0.00,,,0.00,Wunderground v.1.15,2013-02-26 08:35:00,
2013-02-26 02:40:00,32.2,28.5,29.83,NE,41,3.0,3.0,86,0.00,,,0.00,Wunderground v.1.15,2013-02-26 08:40:00,
2013-02-26 02:45:00,32.2,28.5,29.83,North,5,3.0,3.0,86,0.00,,,0.00,Wunderground v.1.15,2013-02-26 08:45:00,
2013-02-26 02:50:00,32.2,28.5,29.83,ENE,59,3.0,3.0,86,0.00,,,0.00,Wunderground v.1.15,2013-02-26 08:50:00,
2013-02-26 02:55:00,32.2,28.5,29.82,NNW,338,2.0,4.0,86,0.00,,,0.00,Wunderground v.1.15,2013-02-26 08:55:00,
2013-02-26 03:05:00,32.2,28.5,29.82,ENE,58,1.0,2.0,86,0.00,,,0.00,Wunderground v.1.15,2013-02-26 09:05:00,
2013-02-26 03:10:00,32.2,28.2,29.81,NE,49,1.0,1.0,85,0.00,,,0.00,Wunderground v.1.15,2013-02-26 09:10:00,
2013-02-26 03:15:00,32.1,28.1,29.81,NE,48,2.0,2.0,85,0.00,,,0.00,Wunderground v.1.15,2013-02-26 09:15:00,
2013-02-26 03:20:00,32.1,28.1,29.81,ENE,66,3.0,3.0,85,0.00,,,0.00,Wunderground v.1.15,2013-02-26 09:20:00,
2013-02-26 03:30:00,32.1,28.1,29.81,NE,48,3.0,4.0,85,0.00,,,0.00,Wunderground v.1.15,2013-02-26 09:30:00,
2013-02-26 03:35:00,32.0,28.0,29.80,ENE,62,3.0,4.0,85,0.00,,,0.00,Wunderground v.1.15,2013-02-26 09:35:00,
2013-02-26 03:40:00,32.0,28.0,29.80,NNE,32,3.0,3.0,85,0.00,,,0.00,Wunderground v.1.15,2013-02-26 09:40:00,
2013-02-26 03:45:00,32.0,27.7,29.80,NE,46,3.0,3.0,84,0.00,,,0.00,Wunderground v.1.15,2013-02-26 09:45:00,
2013-02-26 03:55:00,31.9,27.6,29.79,ENE,59,3.0,3.0,84,0.00,,,0.00,Wunderground v.1.15,2013-02-26 09:55:00,
2013-02-26 04:00:00,31.9,27.6,29.79,NE,46,3.0,3.0,84,0.00,,,0.00,Wunderground v.1.15,2013-02-26 10:00:00,
2013-02-26 04:05:00,31.9,27.6,29.79,NE,46,3.0,4.0,84,0.00,,,0.00,Wunderground v.1.15,2013-02-26 10:05:00,
2013-02-26 04:10:00,31.9,27.6,29.79,NNE,19,3.0,4.0,84,0.00,,,0.00,Wunderground v.1.15,2013-02-26 10:10:00,
2013-02-26 04:15:00,31.9,27.6,29.79,NE,51,3.0,4.0,84,0.00,,,0.00,Wunderground v.1.15,2013-02-26 10:15:00,
2013-02-26 04:20:00,31.9,27.6,29.79,ENE,68,3.0,4.0,84,0.00,,,0.00,Wunderground v.1.15,2013-02-26 10:20:00,
2013-02-26 04:25:00,31.9,27.6,29.78,NE,45,4.0,5.0,84,0.00,,,0.00,Wunderground v.1.15,2013-02-26 10:25:00,
2013-02-26 04:35:00,32.0,27.4,29.79,North,355,4.0,4.0,83,0.00,,,0.00,Wunderground v.1.15,2013-02-26 10:35:00,
2013-02-26 04:40:00,32.0,27.4,29.79,NE,52,3.0,3.0,83,0.00,,,0.00,Wunderground v.1.15,2013-02-26 10:40:00,
2013-02-26 04:45:00,32.0,27.4,29.79,NNE,33,3.0,3.0,83,0.00,,,0.00,Wunderground v.1.15,2013-02-26 10:45:00,
2013-02-26 04:50:00,32.0,27.4,29.79,NNE,19,4.0,4.0,83,0.00,,,0.00,Wunderground v.1.15,2013-02-26 10:50:00,
2013-02-26 04:55:00,32.0,27.4,29.79,NE,51,4.0,4.0,83,0.00,,,0.00,Wunderground v.1.15,2013-02-26 10:55:00,
2013-02-26 05:00:00,32.0,27.4,29.79,ENE,69,3.0,7.0,83,0.00,,,0.00,Wunderground v.1.15,2013-02-26 11:00:00,
2013-02-26 05:05:00,32.0,27.1,29.79,NNE,33,4.0,7.0,82,0.00,,,0.00,Wunderground v.1.15,2013-02-26 11:05:00,
2013-02-26 05:10:00,32.1,27.2,29.79,NE,37,5.0,5.0,82,0.00,,,0.00,Wunderground v.1.15,2013-02-26 11:10:00,
2013-02-26 05:20:00,31.8,27.5,29.78,ENE,62,4.0,7.0,84,0.00,,,0.00,Wunderground v.1.15,2013-02-26 11:20:00,
2013-02-26 05:25:00,31.4,28.0,29.78,ENE,57,4.0,7.0,87,0.00,,,0.00,Wunderground v.1.15,2013-02-26 11:25:00,
2013-02-26 05:30:00,30.9,28.0,29.78,ENE,65,4.0,4.0,89,0.00,,,0.00,Wunderground v.1.15,2013-02-26 11:30:00,
2013-02-26 05:35:00,30.6,28.0,29.77,NE,42,4.0,4.0,90,0.00,,,0.00,Wunderground v.1.15,2013-02-26 11:35:00,
2013-02-26 05:40:00,30.3,28.0,29.77,NE,55,4.0,4.0,91,0.00,,,0.00,Wunderground v.1.15,2013-02-26 11:40:00,
2013-02-26 05:45:00,30.2,28.2,29.78,ENE,69,3.0,5.0,92,0.00,,,0.00,Wunderground v.1.15,2013-02-26 11:45:00,
2013-02-26 05:50:00,30.1,28.3,29.77,ENE,69,4.0,4.0,93,0.00,,,0.00,Wunderground v.1.15,2013-02-26 11:50:00,
2013-02-26 05:55:00,30.0,28.2,29.78,ENE,58,4.0,4.0,93,0.00,,,0.00,Wunderground v.1.15,2013-02-26 11:55:00,
2013-02-26 06:05:00,29.9,28.4,29.77,NE,34,2.0,4.0,94,0.00,,,0.00,Wunderground v.1.15,2013-02-26 12:05:00,
2013-02-26 06:10:00,29.9,28.4,29.77,NNE,24,2.0,2.0,94,0.00,,,0.00,Wunderground v.1.15,2013-02-26 12:10:00,
2013-02-26 06:15:00,29.8,28.3,29.78,NNW,330,2.0,2.0,94,0.00,,,0.00,Wunderground v.1.15,2013-02-26 12:15:00,
2013-02-26 06:20:00,29.8,28.3,29.78,NNE,32,2.0,2.0,94,0.00,,,0.00,Wunderground v.1.15,2013-02-26 12:20:00,
2013-02-26 06:25:00,29.8,28.5,29.78,ENE,59,1.0,5.0,95,0.00,,,0.00,Wunderground v.1.15,2013-02-26 12:25:00,
2013-02-26 06:30:00,29.7,28.4,29.78,NE,37,1.0,1.0,95,0.00,,,0.00,Wunderground v.1.15,2013-02-26 12:30:00,
2013-02-26 06:40:00,29.6,28.3,29.78,NNE,30,1.0,2.0,95,0.00,,,0.00,Wunderground v.1.15,2013-02-26 12:40:00,
2013-02-26 06:45:00,29.6,28.3,29.78,ENE,68,1.0,4.0,95,0.00,,,0.00,Wunderground v.1.15,2013-02-26 12:45:00,
2013-02-26 06:50:00,29.6,28.3,29.78,NNE,32,1.0,2.0,95,0.00,,,0.00,Wunderground v.1.15,2013-02-26 12:50:00,
2013-02-26 06:55:00,29.5,28.2,29.78,North,350,1.0,2.0,95,0.00,,,0.00,Wunderground v.1.15,2013-02-26 12:55:00,
2013-02-26 07:00:00,29.5,28.2,29.78,North,5,2.0,2.0,95,0.00,,,0.00,Wunderground v.1.15,2013-02-26 13:00:00,
2013-02-26 07:05:00,29.4,28.1,29.77,NNW,338,2.0,2.0,95,0.00,,,0.00,Wunderground v.1.15,2013-02-26 13:05:00,
2013-02-26 07:10:00,29.4,28.1,29.77,NNW,342,3.0,5.0,95,0.00,,,0.00,Wunderground v.1.15,2013-02-26 13:10:00,
2013-02-26 07:20:00,29.3,28.0,29.77,NNW,348,2.0,2.0,95,0.00,,,0.00,Wunderground v.1.15,2013-02-26 13:20:00,
2013-02-26 07:25:00,29.3,28.0,29.78,North,360,2.0,2.0,95,0.00,,,0.00,Wunderground v.1.15,2013-02-26 13:25:00,
2013-02-26 07:30:00,29.3,28.0,29.78,NE,54,1.0,4.0,95,0.00,,,0.00,Wunderground v.1.15,2013-02-26 13:30:00,
2013-02-26 07:35:00,29.3,28.3,29.78,NE,42,1.0,4.0,96,0.00,,,0.00,Wunderground v.1.15,2013-02-26 13:35:00,
2013-02-26 07:40:00,29.3,28.3,29.78,NNW,340,1.0,4.0,96,0.00,,,0.00,Wunderground v.1.15,2013-02-26 13:40:00,
2013-02-26 07:45:00,29.4,28.4,29.78,North,5,1.0,4.0,96,0.00,,,0.00,Wunderground v.1.15,2013-02-26 13:45:00,
2013-02-26 07:50:00,29.4,28.4,29.78,NW,315,1.0,1.0,96,0.00,,,0.00,Wunderground v.1.15,2013-02-26 13:50:00,
2013-02-26 07:55:00,29.4,28.4,29.78,NNW,330,1.0,5.0,96,0.00,,,0.00,Wunderground v.1.15,2013-02-26 13:55:00,
2013-02-26 08:00:00,29.5,28.5,29.78,NNE,15,2.0,2.0,96,0.00,,,0.00,Wunderground v.1.15,2013-02-26 14:00:00,
2013-02-26 08:10:00,29.6,28.6,29.79,NE,40,1.0,1.0,96,0.00,,,0.00,Wunderground v.1.15,2013-02-26 14:10:00,
2013-02-26 08:15:00,29.7,28.7,29.79,North,5,1.0,1.0,96,0.00,,,0.00,Wunderground v.1.15,2013-02-26 14:15:00,
2013-02-26 08:25:00,29.7,28.7,29.78,NNE,30,1.0,2.0,96,0.00,,,0.00,Wunderground v.1.15,2013-02-26 14:25:00,
2013-02-26 08:30:00,29.7,28.7,29.78,ENE,57,1.0,1.0,96,0.00,,,0.00,Wunderground v.1.15,2013-02-26 14:30:00,
2013-02-26 08:35:00,29.6,28.6,29.78,NE,56,2.0,2.0,96,0.00,,,0.00,Wunderground v.1.15,2013-02-26 14:35:00,
2013-02-26 08:40:00,29.7,28.7,29.78,NE,55,2.0,3.0,96,0.00,,,0.00,Wunderground v.1.15,2013-02-26 14:40:00,
2013-02-26 08:45:00,29.7,28.4,29.77,NE,46,2.0,3.0,95,0.00,,,0.00,Wunderground v.1.15,2013-02-26 14:45:00,
2013-02-26 08:50:00,29.8,28.8,29.77,NNE,22,3.0,4.0,96,0.00,,,0.00,Wunderground v.1.15,2013-02-26 14:50:00,
2013-02-26 08:55:00,29.9,28.9,29.76,NW,319,3.0,5.0,96,0.00,,,0.00,Wunderground v.1.15,2013-02-26 14:55:00,
2013-02-26 09:05:00,30.0,28.7,29.76,North,360,3.0,4.0,95,0.00,,,0.00,Wunderground v.1.15,2013-02-26 15:05:00,
2013-02-26 09:10:00,30.0,28.7,29.76,ENE,61,2.0,3.0,95,0.00,,,0.00,Wunderground v.1.15,2013-02-26 15:10:00,
2013-02-26 09:15:00,30.0,28.7,29.76,ENE,68,3.0,4.0,95,0.00,,,0.00,Wunderground v.1.15,2013-02-26 15:15:00,
2013-02-26 09:25:00,30.2,28.9,29.74,North,5,3.0,3.0,95,0.00,,,0.00,Wunderground v.1.15,2013-02-26 15:25:00,
2013-02-26 09:30:00,30.3,29.0,29.75,North,351,3.0,3.0,95,0.00,,,0.00,Wunderground v.1.15,2013-02-26 15:30:00,
2013-02-26 09:35:00,30.3,29.0,29.74,NE,36,2.0,3.0,95,0.00,,,0.00,Wunderground v.1.15,2013-02-26 15:35:00,
2013-02-26 09:40:00,30.5,29.2,29.74,NNE,30,3.0,3.0,95,0.00,,,0.00,Wunderground v.1.15,2013-02-26 15:40:00,
2013-02-26 09:45:00,30.6,29.3,29.74,NE,49,3.0,3.0,95,0.00,,,0.00,Wunderground v.1.15,2013-02-26 15:45:00,
2013-02-26 09:55:00,30.9,29.6,29.73,NNE,21,2.0,4.0,95,0.00,,,0.00,Wunderground v.1.15,2013-02-26 15:55:00,
2013-02-26 10:00:00,30.8,29.3,29.72,NNW,343,3.0,5.0,94,0.00,,,0.00,Wunderground v.1.15,2013-02-26 16:00:00,
2013-02-26 10:05:00,30.8,29.3,29.72,NNE,21,3.0,5.0,94,0.00,,,0.00,Wunderground v.1.15,2013-02-26 16:05:00,
2013-02-26 10:10:00,30.9,29.4,29.72,NNE,12,3.0,3.0,94,0.00,,,0.00,Wunderground v.1.15,2013-02-26 16:10:00,
2013-02-26 10:15:00,31.0,29.5,29.72,North,360,3.0,3.0,94,0.00,,,0.00,Wunderground v.1.15,2013-02-26 16:15:00,
2013-02-26 10:20:00,31.1,29.6,29.72,NE,44,2.0,3.0,94,0.00,,,0.00,Wunderground v.1.15,2013-02-26 16:20:00,
2013-02-26 10:30:00,31.3,29.5,29.71,NNE,30,2.0,2.0,93,0.00,,,0.00,Wunderground v.1.15,2013-02-26 16:30:00,
2013-02-26 10:35:00,31.3,29.5,29.72,NNW,346,2.0,3.0,93,0.00,,,0.00,Wunderground v.1.15,2013-02-26 16:35:00,
2013-02-26 10:40:00,31.3,29.5,29.71,NE,35,2.0,2.0,93,0.00,,,0.00,Wunderground v.1.15,2013-02-26 16:40:00,
2013-02-26 10:45:00,31.3,29.5,29.72,NNE,19,2.0,2.0,93,0.00,,,0.00,Wunderground v.1.15,2013-02-26 16:45:00,
2013-02-26 10:50:00,31.3,29.5,29.71,NNE,13,2.0,2.0,93,0.00,,,0.00,Wunderground v.1.15,2013-02-26 16:50:00,
2013-02-26 10:55:00,31.4,29.6,29.71,NNE,13,2.0,2.0,93,0.00,,,0.01,Wunderground v.1.15,2013-02-26 16:55:00,
2013-02-26 11:00:00,31.4,29.6,29.71,NNE,28,2.0,5.0,93,0.00,,,0.01,Wunderground v.1.15,2013-02-26 17:00:00,
2013-02-26 11:05:00,31.4,29.6,29.71,NNE,22,3.0,5.0,93,0.00,,,0.01,Wunderground v.1.15,2013-02-26 17:05:00,
2013-02-26 11:15:00,31.4,29.6,29.71,North,350,2.0,5.0,93,0.00,,,0.01,Wunderground v.1.15,2013-02-26 17:15:00,
2013-02-26 11:20:00,31.4,29.6,29.71,North,360,2.0,2.0,93,0.00,,,0.01,Wunderground v.1.15,2013-02-26 17:20:00,
2013-02-26 11:25:00,31.4,29.6,29.71,ENE,68,2.0,3.0,93,0.00,,,0.01,Wunderground v.1.15,2013-02-26 17:25:00,
2013-02-26 11:30:00,31.4,29.6,29.71,NE,34,2.0,2.0,93,0.00,,,0.01,Wunderground v.1.15,2013-02-26 17:30:00,
2013-02-26 11:35:00,31.5,29.7,29.71,NE,48,2.0,2.0,93,0.00,,,0.01,Wunderground v.1.15,2013-02-26 17:35:00,
2013-02-26 11:45:00,32.0,30.2,29.71,NNE,32,1.0,2.0,93,0.00,,,0.02,Wunderground v.1.15,2013-02-26 17:45:00,
2013-02-26 11:50:00,32.1,30.0,29.71,NNE,24,1.0,4.0,92,0.00,,,0.02,Wunderground v.1.15,2013-02-26 17:50:00,
2013-02-26 11:55:00,32.2,30.1,29.71,ENE,71,2.0,5.0,92,0.00,,,0.02,Wunderground v.1.15,2013-02-26 17:55:00,
2013-02-26 12:00:00,32.4,30.1,29.71,NE,37,2.0,5.0,91,0.00,,,0.02,Wunderground v.1.15,2013-02-26 18:00:00,
2013-02-26 12:10:00,32.5,30.2,29.70,East,80,2.0,2.0,91,0.00,,,0.02,Wunderground v.1.15,2013-02-26 18:10:00,
2013-02-26 12:15:00,32.5,29.9,29.71,NE,46,3.0,5.0,90,0.00,,,0.02,Wunderground v.1.15,2013-02-26 18:15:00,
2013-02-26 12:20:00,32.5,29.9,29.71,ENE,57,4.0,4.0,90,0.00,,,0.02,Wunderground v.1.15,2013-02-26 18:20:00,
2013-02-26 12:25:00,32.4,29.8,29.71,NE,47,4.0,6.0,90,0.00,,,0.02,Wunderground v.1.15,2013-02-26 18:25:00,
2013-02-26 12:30:00,32.3,29.7,29.70,NNW,345,4.0,4.0,90,0.00,,,0.02,Wunderground v.1.15,2013-02-26 18:30:00,
2013-02-26 12:35:00,32.2,29.6,29.70,NE,44,4.0,4.0,90,0.00,,,0.02,Wunderground v.1.15,2013-02-26 18:35:00,
2013-02-26 12:40:00,32.3,30.0,29.70,North,360,3.0,5.0,91,0.00,,,0.02,Wunderground v.1.15,2013-02-26 18:40:00,
2013-02-26 12:50:00,32.2,29.9,29.70,NE,40,4.0,5.0,91,0.00,,,0.03,Wunderground v.1.15,2013-02-26 18:50:00,
2013-02-26 12:55:00,32.1,29.8,29.70,NNE,32,5.0,6.0,91,0.00,,,0.03,Wunderground v.1.15,2013-02-26 18:55:00,
2013-02-26 13:00:00,32.0,29.7,29.70,North,360,5.0,5.0,91,0.00,,,0.03,Wunderground v.1.15,2013-02-26 19:00:00,
2013-02-26 13:05:00,32.0,29.7,29.70,NNE,21,4.0,5.0,91,0.04,,,0.04,Wunderground v.1.15,2013-02-26 19:05:00,
2013-02-26 13:10:00,32.0,29.7,29.70,NNE,31,4.0,4.0,91,0.04,,,0.04,Wunderground v.1.15,2013-02-26 19:10:00,
2013-02-26 13:20:00,32.0,29.7,29.70,NNE,30,4.0,4.0,91,0.04,,,0.04,Wunderground v.1.15,2013-02-26 19:20:00,
2013-02-26 13:25:00,32.0,29.7,29.70,NE,42,4.0,7.0,91,0.00,,,0.04,Wunderground v.1.15,2013-02-26 19:25:00,
2013-02-26 13:30:00,31.9,29.6,29.70,NE,36,5.0,5.0,91,0.00,,,0.04,Wunderground v.1.15,2013-02-26 19:30:00,
2013-02-26 13:35:00,31.9,29.6,29.70,NE,46,5.0,5.0,91,0.00,,,0.05,Wunderground v.1.15,2013-02-26 19:35:00,
2013-02-26 13:40:00,31.9,29.6,29.70,NE,42,5.0,5.0,91,0.00,,,0.05,Wunderground v.1.15,2013-02-26 19:40:00,
2013-02-26 13:45:00,31.9,29.6,29.69,NNE,24,4.0,5.0,91,0.00,,,0.05,Wunderground v.1.15,2013-02-26 19:45:00,
2013-02-26 13:50:00,32.0,29.9,29.69,NE,56,5.0,5.0,92,0.00,,,0.05,Wunderground v.1.15,2013-02-26 19:50:00,
2013-02-26 14:00:00,32.0,29.7,29.69,North,11,5.0,6.0,91,0.00,,,0.06,Wunderground v.1.15,2013-02-26 20:00:00,
2013-02-26 14:05:00,32.0,29.7,29.68,North,360,5.0,7.0,91,0.00,,,0.06,Wunderground v.1.15,2013-02-26 20:05:00,
2013-02-26 14:10:00,32.1,29.8,29.68,NNE,19,5.0,6.0,91,0.00,,,0.06,Wunderground v.1.15,2013-02-26 20:10:00,
2013-02-26 14:20:00,32.2,29.9,29.68,NNE,28,4.0,5.0,91,0.00,,,0.06,Wunderground v.1.15,2013-02-26 20:20:00,
2013-02-26 14:25:00,32.2,29.9,29.68,NNE,32,4.0,5.0,91,0.00,,,0.06,Wunderground v.1.15,2013-02-26 20:25:00,
2013-02-26 14:30:00,32.1,29.8,29.68,NNE,15,4.0,7.0,91,0.00,,,0.06,Wunderground v.1.15,2013-02-26 20:30:00,
2013-02-26 14:35:00,32.0,29.9,29.68,NNW,328,5.0,7.0,92,0.00,,,0.06,Wunderground v.1.15,2013-02-26 20:35:00,
2013-02-26 14:45:00,31.8,30.0,29.68,NW,314,4.0,9.0,93,0.00,,,0.07,Wunderground v.1.15,2013-02-26 20:45:00,
2013-02-26 14:50:00,31.7,29.9,29.68,North,360,3.0,3.0,93,0.00,,,0.07,Wunderground v.1.15,2013-02-26 20:50:00,
2013-02-26 15:00:00,31.6,30.1,29.69,North,360,4.0,6.0,94,0.00,,,0.07,Wunderground v.1.15,2013-02-26 21:00:00,
2013-02-26 15:05:00,31.6,30.1,29.69,NE,42,4.0,6.0,94,0.00,,,0.07,Wunderground v.1.15,2013-02-26 21:05:00,
2013-02-26 15:10:00,31.6,30.1,29.69,NE,45,3.0,3.0,94,0.00,,,0.07,Wunderground v.1.15,2013-02-26 21:10:00,
2013-02-26 15:15:00,31.5,30.0,29.69,North,355,3.0,3.0,94,0.00,,,0.07,Wunderground v.1.15,2013-02-26 21:15:00,
2013-02-26 15:25:00,31.4,30.1,29.70,NNE,17,4.0,4.0,95,0.00,,,0.07,Wunderground v.1.15,2013-02-26 21:25:00,
2013-02-26 15:30:00,31.4,30.1,29.70,NNE,26,4.0,10.0,95,0.00,,,0.08,Wunderground v.1.15,2013-02-26 21:30:00,
2013-02-26 15:35:00,31.4,30.1,29.71,North,355,4.0,10.0,95,0.00,,,0.08,Wunderground v.1.15,2013-02-26 21:35:00,
2013-02-26 15:40:00,31.3,30.0,29.71,North,360,4.0,5.0,95,0.00,,,0.08,Wunderground v.1.15,2013-02-26 21:40:00,
2013-02-26 15:45:00,31.2,29.9,29.71,NNW,344,4.0,5.0,95,0.00,,,0.08,Wunderground v.1.15,2013-02-26 21:45:00,
2013-02-26 15:50:00,31.1,29.8,29.71,NNW,348,3.0,3.0,95,0.00,,,0.08,Wunderground v.1.15,2013-02-26 21:50:00,
2013-02-26 16:00:00,31.1,29.8,29.71,North,355,4.0,9.0,95,0.00,,,0.08,Wunderground v.1.15,2013-02-26 22:00:00,
2013-02-26 16:05:00,31.1,29.8,29.71,North,11,4.0,9.0,95,0.00,,,0.08,Wunderground v.1.15,2013-02-26 22:05:00,
2013-02-26 16:10:00,31.0,29.7,29.71,North,349,5.0,7.0,95,0.00,,,0.08,Wunderground v.1.15,2013-02-26 22:10:00,
2013-02-26 16:20:00,31.0,29.7,29.71,NNW,342,4.0,5.0,95,0.00,,,0.08,Wunderground v.1.15,2013-02-26 22:20:00,
2013-02-26 16:25:00,31.0,29.7,29.72,NNW,344,4.0,5.0,95,0.00,,,0.08,Wunderground v.1.15,2013-02-26 22:25:00,
2013-02-26 16:30:00,31.0,30.0,29.72,NNE,14,4.0,4.0,96,0.00,,,0.08,Wunderground v.1.15,2013-02-26 22:30:00,
2013-02-26 16:35:00,31.2,30.2,29.72,NNW,340,4.0,4.0,96,0.00,,,0.08,Wunderground v.1.15,2013-02-26 22:35:00,
2013-02-26 16:40:00,31.2,30.2,29.72,NNW,341,4.0,4.0,96,0.00,,,0.08,Wunderground v.1.15,2013-02-26 22:40:00,
2013-02-26 16:50:00,31.2,30.2,29.72,NW,311,4.0,8.0,96,0.00,,,0.08,Wunderground v.1.15,2013-02-26 22:50:00,
2013-02-26 16:55:00,31.1,30.1,29.72,NNE,15,4.0,8.0,96,0.00,,,0.08,Wunderground v.1.15,2013-02-26 22:55:00,
2013-02-26 17:00:00,31.1,30.1,29.72,North,349,4.0,4.0,96,0.00,,,0.08,Wunderground v.1.15,2013-02-26 23:00:00,
2013-02-26 17:05:00,31.1,30.1,29.72,NE,43,4.0,4.0,96,0.00,,,0.08,Wunderground v.1.15,2013-02-26 23:05:00,
2013-02-26 17:10:00,31.0,30.0,29.72,ENE,65,4.0,8.0,96,0.00,,,0.08,Wunderground v.1.15,2013-02-26 23:10:00,
2013-02-26 17:15:00,31.0,30.0,29.72,North,355,4.0,8.0,96,0.00,,,0.08,Wunderground v.1.15,2013-02-26 23:15:00,
2013-02-26 17:20:00,30.9,29.9,29.72,NNE,17,4.0,4.0,96,0.00,,,0.08,Wunderground v.1.15,2013-02-26 23:20:00,
2013-02-26 17:25:00,30.9,29.9,29.72,NNW,344,4.0,5.0,96,0.00,,,0.08,Wunderground v.1.15,2013-02-26 23:25:00,
2013-02-26 17:35:00,30.9,29.9,29.73,NE,34,4.0,4.0,96,0.00,,,0.08,Wunderground v.1.15,2013-02-26 23:35:00,
2013-02-26 17:40:00,30.9,29.9,29.73,North,349,3.0,3.0,96,0.00,,,0.08,Wunderground v.1.15,2013-02-26 23:40:00,
2013-02-26 17:45:00,30.9,29.9,29.73,North,355,3.0,4.0,96,0.00,,,0.08,Wunderground v.1.15,2013-02-26 23:45:00,
2013-02-26 17:50:00,30.9,29.9,29.73,NNE,33,4.0,4.0,96,0.00,,,0.08,Wunderground v.1.15,2013-02-26 23:50:00,
2013-02-26 17:55:00,30.9,29.9,29.74,NNE,28,3.0,4.0,96,0.00,,,0.08,Wunderground v.1.15,2013-02-26 23:55:00,
2013-02-26 18:05:00,30.9,29.9,29.74,North,360,3.0,5.0,96,0.00,,,0.08,Wunderground v.1.15,2013-02-27 00:05:00,
2013-02-26 18:10:00,30.9,29.9,29.74,North,5,3.0,3.0,96,0.00,,,0.08,Wunderground v.1.15,2013-02-27 00:10:00,
2013-02-26 18:15:00,30.9,29.9,29.74,NNW,348,3.0,7.0,96,0.00,,,0.08,Wunderground v.1.15,2013-02-27 00:15:00,
2013-02-26 18:20:00,30.9,29.9,29.74,North,350,4.0,4.0,96,0.00,,,0.08,Wunderground v.1.15,2013-02-27 00:20:00,
2013-02-26 18:25:00,30.9,30.1,29.74,NNW,337,4.0,4.0,97,0.00,,,0.08,Wunderground v.1.15,2013-02-27 00:25:00,
2013-02-26 18:30:00,30.9,30.1,29.75,North,350,4.0,4.0,97,0.00,,,0.08,Wunderground v.1.15,2013-02-27 00:30:00,
2013-02-26 18:40:00,31.0,30.2,29.75,NNW,330,1.0,1.0,97,0.00,,,0.08,Wunderground v.1.15,2013-02-27 00:40:00,
2013-02-26 18:45:00,31.0,30.2,29.75,NNW,344,1.0,1.0,97,0.00,,,0.08,Wunderground v.1.15,2013-02-27 00:45:00,
2013-02-26 18:50:00,31.0,30.2,29.76,NNW,345,3.0,3.0,97,0.00,,,0.08,Wunderground v.1.15,2013-02-27 00:50:00,
2013-02-26 18:55:00,31.0,30.2,29.76,NNW,341,3.0,3.0,97,0.00,,,0.08,Wunderground v.1.15,2013-02-27 00:55:00,
2013-02-26 19:00:00,31.0,30.2,29.76,NNW,344,3.0,3.0,97,0.00,,,0.08,Wunderground v.1.15,2013-02-27 01:00:00,
2013-02-26 19:10:00,31.1,30.3,29.76,North,355,4.0,7.0,97,0.00,,,0.08,Wunderground v.1.15,2013-02-27 01:10:00,
2013-02-26 19:15:00,31.1,30.3,29.76,NW,325,3.0,8.0,97,0.00,,,0.08,Wunderground v.1.15,2013-02-27 01:15:00,
2013-02-26 19:20:00,31.1,30.3,29.76,North,351,4.0,4.0,97,0.00,,,0.08,Wunderground v.1.15,2013-02-27 01:20:00,
2013-02-26 19:25:00,31.1,30.3,29.76,NW,323,2.0,4.0,97,0.00,,,0.08,Wunderground v.1.15,2013-02-27 01:25:00,
2013-02-26 19:30:00,31.1,30.3,29.77,NNE,18,0.0,0.0,97,0.00,,,0.08,Wunderground v.1.15,2013-02-27 01:30:00,
2013-02-26 19:35:00,31.1,30.3,29.77,NW,306,0.0,0.0,97,0.00,,,0.08,Wunderground v.1.15,2013-02-27 01:35:00,
2013-02-26 19:45:00,31.1,30.3,29.77,North,355,1.0,5.0,97,0.00,,,0.08,Wunderground v.1.15,2013-02-27 01:45:00,
2013-02-26 19:50:00,31.1,30.3,29.77,North,360,3.0,3.0,97,0.00,,,0.08,Wunderground v.1.15,2013-02-27 01:50:00,
2013-02-26 19:55:00,31.1,30.3,29.77,NNW,337,3.0,11.0,97,0.00,,,0.08,Wunderground v.1.15,2013-02-27 01:55:00,
2013-02-26 20:00:00,31.1,30.3,29.77,North,349,4.0,4.0,97,0.00,,,0.08,Wunderground v.1.15,2013-02-27 02:00:00,
2013-02-26 20:10:00,31.1,30.3,29.77,NNW,331,2.0,3.0,97,0.00,,,0.08,Wunderground v.1.15,2013-02-27 02:10:00,
2013-02-26 20:15:00,31.1,30.3,29.78,NNW,340,3.0,7.0,97,0.00,,,0.08,Wunderground v.1.15,2013-02-27 02:15:00,
2013-02-26 20:20:00,31.0,30.2,29.78,NW,325,4.0,6.0,97,0.00,,,0.08,Wunderground v.1.15,2013-02-27 02:20:00,
2013-02-26 20:25:00,31.0,30.2,29.78,North,349,3.0,6.0,97,0.00,,,0.08,Wunderground v.1.15,2013-02-27 02:25:00,
2013-02-26 20:35:00,31.0,30.2,29.78,North,5,3.0,3.0,97,0.00,,,0.08,Wunderground v.1.15,2013-02-27 02:35:00,
2013-02-26 20:45:00,30.9,30.1,29.78,NNE,19,2.0,2.0,97,0.00,,,0.08,Wunderground v.1.15,2013-02-27 02:45:00,
2013-02-26 20:50:00,31.0,30.2,29.78,NNW,343,2.0,2.0,97,0.00,,,0.08,Wunderground v.1.15,2013-02-27 02:50:00,
2013-02-26 21:00:00,31.0,30.2,29.78,NNW,327,3.0,3.0,97,0.00,,,0.08,Wunderground v.1.15,2013-02-27 03:00:00,
2013-02-26 21:05:00,31.0,30.2,29.78,NNW,344,2.0,3.0,97,0.00,,,0.08,Wunderground v.1.15,2013-02-27 03:05:00,
2013-02-26 21:10:00,31.0,30.2,29.78,NNW,340,1.0,1.0,97,0.00,,,0.08,Wunderground v.1.15,2013-02-27 03:10:00,
2013-02-26 21:15:00,31.0,30.2,29.78,North,349,1.0,3.0,97,0.00,,,0.08,Wunderground v.1.15,2013-02-27 03:15:00,
2013-02-26 21:20:00,31.0,30.2,29.78,NNW,345,2.0,2.0,97,0.00,,,0.08,Wunderground v.1.15,2013-02-27 03:20:00,
2013-02-26 21:25:00,31.1,30.3,29.78,NNE,15,1.0,2.0,97,0.00,,,0.08,Wunderground v.1.15,2013-02-27 03:25:00,
2013-02-26 21:35:00,31.0,30.2,29.78,North,355,0.0,0.0,97,0.00,,,0.08,Wunderground v.1.15,2013-02-27 03:35:00,
2013-02-26 21:40:00,31.1,30.3,29.78,NNW,334,0.0,0.0,97,0.00,,,0.08,Wunderground v.1.15,2013-02-27 03:40:00,
2013-02-26 21:45:00,31.1,30.3,29.78,NNW,340,0.0,0.0,97,0.00,,,0.08,Wunderground v.1.15,2013-02-27 03:45:00,
2013-02-26 21:50:00,31.0,30.2,29.78,North,355,0.0,0.0,97,0.00,,,0.08,Wunderground v.1.15,2013-02-27 03:50:00,
2013-02-26 21:55:00,31.0,30.2,29.78,North,355,0.0,0.0,97,0.00,,,0.08,Wunderground v.1.15,2013-02-27 03:55:00,
2013-02-26 22:00:00,31.0,30.2,29.78,NNW,340,0.0,0.0,97,0.00,,,0.08,Wunderground v.1.15,2013-02-27 04:00:00,
2013-02-26 22:10:00,30.9,30.1,29.78,NNW,330,0.0,0.0,97,0.00,,,0.08,Wunderground v.1.15,2013-02-27 04:10:00,
2013-02-26 22:20:00,30.9,30.1,29.78,NNW,342,0.0,0.0,97,0.00,,,0.08,Wunderground v.1.15,2013-02-27 04:20:00,
2013-02-26 22:30:00,30.8,30.0,29.78,NW,314,0.0,0.0,97,0.00,,,0.08,Wunderground v.1.15,2013-02-27 04:30:00,
2013-02-26 22:40:00,30.7,30.0,29.78,NNW,336,0.0,0.0,97,0.00,,,0.08,Wunderground v.1.15,2013-02-27 04:40:00,
2013-02-26 22:45:00,30.6,29.9,29.78,NNW,340,0.0,0.0,97,0.00,,,0.08,Wunderground v.1.15,2013-02-27 04:45:00,
2013-02-26 22:50:00,30.6,29.9,29.78,NNW,340,0.0,0.0,97,0.00,,,0.08,Wunderground v.1.15,2013-02-27 04:50:00,
2013-02-26 22:55:00,30.5,29.8,29.78,NNW,342,0.0,0.0,97,0.00,,,0.08,Wunderground v.1.15,2013-02-27 04:55:00,
2013-02-26 23:00:00,30.5,29.8,29.78,NNW,338,0.0,0.0,97,0.00,,,0.08,Wunderground v.1.15,2013-02-27 05:00:00,
2013-02-26 23:05:00,30.5,29.8,29.78,NW,311,0.0,0.0,97,0.00,,,0.08,Wunderground v.1.15,2013-02-27 05:05:00,
2013-02-26 23:10:00,30.5,29.8,29.78,NNW,341,0.0,0.0,97,0.00,,,0.08,Wunderground v.1.15,2013-02-27 05:10:00,
2013-02-26 23:15:00,30.4,29.7,29.78,NW,315,0.0,0.0,97,0.00,,,0.08,Wunderground v.1.15,2013-02-27 05:15:00,
2013-02-26 23:20:00,30.3,29.6,29.78,NNW,346,0.0,0.0,97,0.00,,,0.08,Wunderground v.1.15,2013-02-27 05:20:00,
2013-02-26 23:25:00,30.3,29.6,29.78,North,5,0.0,0.0,97,0.00,,,0.08,Wunderground v.1.15,2013-02-27 05:25:00,
2013-02-26 23:30:00,30.2,29.5,29.78,WNW,288,0.0,0.0,97,0.00,,,0.08,Wunderground v.1.15,2013-02-27 05:30:00,
2013-02-26 23:35:00,30.1,29.4,29.78,NNW,331,0.0,0.0,97,0.00,,,0.08,Wunderground v.1.15,2013-02-27 05:35:00,
2013-02-26 23:40:00,30.1,29.4,29.78,NW,323,0.0,0.0,97,0.00,,,0.08,Wunderground v.1.15,2013-02-27 05:40:00,
2013-02-26 23:45:00,30.1,29.4,29.78,NNW,337,0.0,0.0,97,0.00,,,0.08,Wunderground v.1.15,2013-02-27 05:45:00,
2013-02-26 23:50:00,30.1,29.4,29.78,NW,325,0.0,0.0,97,0.00,,,0.08,Wunderground v.1.15,2013-02-27 05:50:00,
2013-02-26 23:55:00,30.1,29.4,29.78,North,355,0.0,0.0,97,0.00,,,0.08,Wunderground v.1.15,2013-02-27 05:55:00,